sat.trackr.live / text

‹ back to catalog

STARLINK-37121

NORAD 68383 · 2026-063D

PAYLOAD ACTIVE UNKNOWN

§ Identity

Operator
Country
US
Launch date
2026-03-26
Launch site
AFWTR
Launch vehicle
Mass (kg)
RCS (m²)

Purposes: comms

External: N2YO · Heavens-Above · Gunter

§ Orbital elements

Epoch: 2026-09-19T15:26:05.068608Z

Period
93.91 min
Inclination
97.2873°
Eccentricity
0.0002325
Mean motion
15.33446029 rev/d
Perigee alt
463.9 km
Apogee alt
467.1 km
Semi-major
6,843.7 km
B*
6.4784e-4
RAAN
43.4630°
Arg perigee
94.1097°
Mean anomaly
266.0412°
Rev number
2,761

§ Raw data

STARLINK-371211 68383U 26063D   26262.64311422  .00020899  00000+0  64784-3 0  99952 68383  97.2873  43.4630 0002325  94.1097 266.0412 15.33446029 27612

JSON: /api/v1/satellites/68383 · /tle

For live sub-satellite position, see the globe view (requires WebGL).

§ Visibility from observer

Set your observer location to see the next 7 days of passes ≥ 10°. The values pass through the URL so the page stays shareable.

No JS? Fill the form by hand. The geolocation button needs JavaScript.